This demonstration page uses our WeatherBlox Daily Observations layout. Learn more.

41.55636, -103.73856

Hourly Observations for August 19, 2016

Temp ( °F °C ) Dew Point ( °F °C ) Humidity (%) Winds ( mph kmh ) Pressure ( in mb ) Visibility ( mi km ) Precip ( " mm )
12:53 am 00:53 Partly Cloudy 61 16 N/A N/A NNW 7 11 29.97 1015 10 16.0934 0 0
1:53 am 01:53 Mostly Clear 57 14 N/A N/A WNW 5 7 29.97 1015 10 16.0934 0 0
2:53 am 02:53 Cloudy 60 15.6 60 15.6 100 100 Calm 29.95 1014 10 16.0934 0 0
3:53 am 03:53 Cloudy 60 15.6 56 13.3 86 86 NW 3 6 29.97 1015 10 16.0934 0 0
4:53 am 04:53 Cloudy 59 15 57 13.9 93 93 WNW 3 6 29.98 1015 10 16.0934 0 0
5:53 am 05:53 Cloudy 59 15 56 13.3 90 90 Calm 29.99 1016 10 16.0934 0 0
6:19 am 06:19 Cloudy 60 15.6 56 13.3 86 86 Calm 29.97 1015 10 16.0934 0 0
6:53 am 06:53 Partly Cloudy 60 15.6 56 13.3 86 86 NE 3 6 29.99 1016 10 16.0934 0 0
7:53 am 07:53 Cloudy 61 16.1 56 13.3 84 84 Calm 30 1016 10 16.0934 0 0
8:53 am 08:53 Mostly Cloudy 62 16.7 55 12.8 78 78 SW 5 7 30 1016 10 16.0934 0 0
9:53 am 09:53 Cloudy 65 18.3 55 12.8 70 70 WNW 7 11 29.99 1016 10 16.0934 0 0
10:53 am 10:53 Mostly Cloudy 69 20.6 56 13.3 63 63 NNW 7 11 29.97 1015 10 16.0934 0 0
11:53 am 11:53 Sunny 73 22.8 54 12.2 51 51 NNW 6 9 29.96 1015 10 16.0934 0 0
12:53 pm 12:53 Mostly Cloudy 74 23.3 55 12.8 52 52 WNW 9 15 29.96 1014 10 16.0934 0 0
1:53 pm 13:53 Cloudy 69 20.6 53 11.7 57 57 NNW 22 35 29.98 1015 10 16.0934 0 0
2:53 pm 14:53 Partly Cloudy 64 17.8 49 9.4 58 58 NNW 24 39 30.01 1016 10 16.0934 0 0
3:53 pm 15:53 Cloudy 59 15 50 10 72 72 NNW 21 33 30.05 1018 10 16.0934 0 0.0254
4:00 pm 16:00 Cloudy with Light Rain 59 15 50 10 72 72 NNW 18 30 30 1016 10 16.0934 0 0
4:19 pm 16:19 Cloudy with Rain 55 12.8 51 10.6 87 87 NNW 16 26 30.06 1018 2 3.21868 0.04 1.016
4:36 pm 16:36 Cloudy with Light Rain 55 13 52 11 88 88 N 13 20 30.03 1017 6 9.65604 0 0
4:53 pm 16:53 Cloudy with Light Rain 55 12.8 51 10.6 87 87 N 10 17 30.1 1019 10 16.0934 0.08 2.032
5:28 pm 17:28 Cloudy with Rain 54 12 52 11 94 94 N 13 20 30.09 1019 2.5 4.02335 0 0
5:37 pm 17:37 Cloudy with Light Rain 55 12.8 51 10.6 87 87 N 12 19 30.09 1019 5 8.0467 0.06 1.524
5:53 pm 17:53 Cloudy with Light Rain 54 12.2 51 10.6 90 90 NNW 7 11 30.11 1020 4 6.43736 0.07 1.778
6:11 pm 18:11 Cloudy with Light Rain 55 12.8 52 11.1 90 90 NNW 5 7 30.09 1019 10 16.0934 0.02 0.508
7:53 pm 19:53 Cloudy 56 13.3 53 11.7 90 90 Calm 30.11 1020 10 16.0934 0 0
8:53 pm 20:53 Clear 54 12.2 51 10.6 90 90 N 3 6 30.13 1020 10 16.0934 0 0
9:53 pm 21:53 Clear 52 11.1 50 10 93 93 W 5 7 30.13 1020 10 16.0934 0 0
10:53 pm 22:53 Clear 49 9.4 47 8.3 93 93 WNW 5 7 30.14 1021 10 16.0934 0 0
11:53 pm 23:53 Clear 49 9.4 46 7.8 90 90 W 7 11 30.14 1021 10 16.0934 0 0

Powered by AerisWeather